TimeMST,TemperatureF,Dew PointF,Humidity,Sea Level PressureIn,VisibilityMPH,Wind Direction,Wind SpeedMPH,Gust SpeedMPH,PrecipitationIn,Events,Conditions,WindDirDegrees,DateUTC
12:15 AM,44.6,30.2,57,29.68,10.0,South,4.6,26.5,N/A,,Clear,170,2014-02-16 07:15:00
12:35 AM,42.8,30.2,61,29.67,10.0,NW,3.5,-,N/A,,Clear,320,2014-02-16 07:35:00
12:55 AM,42.8,28.4,57,29.68,10.0,SSE,5.8,-,N/A,,Clear,160,2014-02-16 07:55:00
1:15 AM,44.6,30.2,57,29.66,10.0,East,9.2,-,N/A,,Clear,90,2014-02-16 08:15:00
1:35 AM,44.6,30.2,57,29.64,10.0,South,10.4,18.4,N/A,,Clear,170,2014-02-16 08:35:00
1:55 AM,46.4,30.2,53,29.63,10.0,ESE,4.6,-,N/A,,Clear,120,2014-02-16 08:55:00
2:15 AM,42.8,28.4,57,29.63,10.0,West,3.5,-,N/A,,Clear,270,2014-02-16 09:15:00
2:35 AM,41.0,28.4,61,29.62,10.0,SSE,8.1,-,N/A,,Clear,160,2014-02-16 09:35:00
3:35 AM,44.6,30.2,57,29.60,10.0,ESE,11.5,18.4,N/A,,Clear,110,2014-02-16 10:35:00
3:55 AM,44.6,32.0,61,29.60,10.0,SE,8.1,-,N/A,,Clear,130,2014-02-16 10:55:00
4:15 AM,46.4,33.8,62,29.59,10.0,WNW,3.5,-,N/A,,Clear,290,2014-02-16 11:15:00
5:55 AM,46.4,33.8,62,29.56,10.0,West,15.0,24.2,N/A,,Clear,260,2014-02-16 12:55:00
7:15 AM,41.0,30.2,65,29.55,10.0,NNW,3.5,-,N/A,,Clear,340,2014-02-16 14:15:00
7:35 AM,44.6,33.8,66,29.54,10.0,West,11.5,19.6,N/A,,Clear,280,2014-02-16 14:35:00
7:55 AM,44.6,33.8,66,29.54,10.0,West,16.1,21.9,N/A,,Clear,270,2014-02-16 14:55:00
8:15 AM,44.6,32.0,61,29.54,10.0,WSW,15.0,25.3,N/A,,Clear,250,2014-02-16 15:15:00
8:35 AM,46.4,32.0,57,29.54,10.0,WSW,17.3,27.6,N/A,,Clear,250,2014-02-16 15:35:00
9:15 AM,46.4,33.8,62,29.53,10.0,WSW,18.4,26.5,N/A,,Clear,240,2014-02-16 16:15:00
9:35 AM,46.4,33.8,62,29.53,10.0,WSW,17.3,26.5,N/A,,Clear,240,2014-02-16 16:35:00
9:55 AM,46.4,33.8,62,29.52,10.0,WSW,23.0,35.7,N/A,,Clear,250,2014-02-16 16:55:00
10:15 AM,46.4,33.8,62,29.54,10.0,SW,21.9,31.1,N/A,,Clear,230,2014-02-16 17:15:00
10:35 AM,44.6,35.6,71,29.53,10.0,SW,21.9,34.5,N/A,,Partly Cloudy,230,2014-02-16 17:35:00
10:55 AM,44.6,35.6,71,29.53,10.0,WSW,17.3,26.5,N/A,,Partly Cloudy,240,2014-02-16 17:55:00
11:15 AM,46.4,33.8,62,29.53,10.0,WSW,18.4,25.3,N/A,,Clear,250,2014-02-16 18:15:00
11:35 AM,48.2,30.2,50,29.52,10.0,West,13.8,32.2,N/A,,Clear,260,2014-02-16 18:35:00
11:55 AM,48.2,28.4,46,29.52,10.0,WSW,17.3,25.3,N/A,,Clear,250,2014-02-16 18:55:00
12:15 PM,48.2,30.2,50,29.52,10.0,WSW,16.1,28.8,N/A,,Clear,250,2014-02-16 19:15:00
12:35 PM,48.2,30.2,50,29.51,10.0,WSW,19.6,29.9,N/A,,Clear,240,2014-02-16 19:35:00
12:55 PM,46.4,30.2,53,29.50,10.0,WSW,17.3,27.6,N/A,,Clear,250,2014-02-16 19:55:00
1:15 PM,46.4,30.2,53,29.51,10.0,WSW,15.0,26.5,N/A,,Clear,240,2014-02-16 20:15:00
1:35 PM,46.4,28.4,50,29.50,10.0,WSW,16.1,25.3,N/A,,Partly Cloudy,240,2014-02-16 20:35:00
1:55 PM,44.6,30.2,57,29.57,10.0,WSW,17.3,32.2,N/A,,Mostly Cloudy,240,2014-02-16 20:55:00
2:15 PM,39.2,30.2,70,29.59,9.0,WSW,18.4,36.8,N/A,,Mostly Cloudy,250,2014-02-16 21:15:00
2:35 PM,41.0,30.2,65,29.58,10.0,NNE,11.5,24.2,N/A,,Scattered Clouds,30,2014-02-16 21:35:00
2:55 PM,35.6,32.0,87,29.56,10.0,East,3.5,-,N/A,,Clear,90,2014-02-16 21:55:00
3:15 PM,39.2,33.8,81,29.61,10.0,North,9.2,-,N/A,,Clear,350,2014-02-16 22:15:00
3:35 PM,39.2,28.4,65,29.66,10.0,WNW,16.1,29.9,N/A,,Mostly Cloudy,300,2014-02-16 22:35:00
3:55 PM,35.6,30.2,81,29.65,10.0,WSW,5.8,-,N/A,,Mostly Cloudy,240,2014-02-16 22:55:00
4:15 PM,37.4,30.2,75,29.67,10.0,NNE,16.1,-,N/A,,Partly Cloudy,30,2014-02-16 23:15:00
4:35 PM,33.8,28.4,81,29.69,10.0,ENE,9.2,-,N/A,,Partly Cloudy,70,2014-02-16 23:35:00
4:55 PM,33.8,28.4,81,29.70,10.0,NE,6.9,-,N/A,,Partly Cloudy,50,2014-02-16 23:55:00
5:15 PM,33.8,28.4,81,29.73,10.0,ESE,6.9,-,N/A,,Partly Cloudy,120,2014-02-17 00:15:00
5:35 PM,35.6,28.4,75,29.74,10.0,West,6.9,-,N/A,,Clear,260,2014-02-17 00:35:00
5:55 PM,35.6,23.0,60,29.76,10.0,West,13.8,23.0,N/A,,Clear,270,2014-02-17 00:55:00
6:15 PM,35.6,21.2,56,29.79,10.0,WSW,13.8,20.7,N/A,,Clear,240,2014-02-17 01:15:00
6:35 PM,35.6,17.6,48,29.80,10.0,SW,9.2,-,N/A,,Clear,230,2014-02-17 01:35:00
6:55 PM,35.6,15.8,44,29.81,10.0,Calm,Calm,-,N/A,,Scattered Clouds,0,2014-02-17 01:55:00
7:15 PM,35.6,14.0,41,29.80,10.0,WSW,12.7,20.7,N/A,,Partly Cloudy,240,2014-02-17 02:15:00
7:35 PM,35.6,12.2,38,29.83,10.0,WNW,10.4,-,N/A,,Clear,290,2014-02-17 02:35:00
7:55 PM,35.6,10.4,35,29.84,10.0,WSW,12.7,23.0,N/A,,Clear,250,2014-02-17 02:55:00
8:15 PM,35.6,10.4,35,29.85,10.0,WSW,8.1,23.0,N/A,,Clear,240,2014-02-17 03:15:00
8:35 PM,35.6,12.2,38,29.88,10.0,West,13.8,19.6,N/A,,Clear,260,2014-02-17 03:35:00
8:55 PM,35.6,8.6,33,29.88,10.0,South,11.5,23.0,N/A,,Clear,190,2014-02-17 03:55:00
9:15 PM,35.6,6.8,30,29.89,10.0,South,4.6,18.4,N/A,,Partly Cloudy,190,2014-02-17 04:15:00
9:35 PM,33.8,8.6,35,29.91,10.0,Calm,Calm,-,N/A,,Clear,0,2014-02-17 04:35:00
9:55 PM,35.6,8.6,33,29.91,10.0,NW,9.2,-,N/A,,Clear,310,2014-02-17 04:55:00
10:15 PM,33.8,6.8,32,29.93,10.0,NNW,16.1,20.7,N/A,,Clear,330,2014-02-17 05:15:00
10:35 PM,33.8,6.8,32,29.94,10.0,SW,15.0,23.0,N/A,,Clear,230,2014-02-17 05:35:00
10:55 PM,33.8,8.6,35,29.94,10.0,West,13.8,24.2,N/A,,Clear,260,2014-02-17 05:55:00
11:15 PM,33.8,6.8,32,29.91,10.0,WSW,20.7,38.0,0.01,,Clear,240,2014-02-17 06:15:00
11:35 PM,33.8,8.6,35,29.91,10.0,WSW,25.3,41.4,0.01,,Clear,250,2014-02-17 06:35:00
11:55 PM,33.8,8.6,35,29.91,10.0,WSW,25.3,46.0,0.01,,Clear,250,2014-02-17 06:55:00